When you browse on this site, cookies collect data to enhance your experience and personalize the content and advertising you see.
Visit our Privacy Policy to learn more. By continuing to use the site, you agree to this use of cookies and data.
  • In Romania
  • List of Countries
  • For 7 days
  • Water Temperature
  • Weather Map
  • Weather Widgets
  • user-avatar
    Login

    Hourly Weather Salvador

    Today, 20 January, Monday

    Time Temperature Precipitation Wind Pressure Humidity
    00:00 +27°C° 0 mm 4 mps 755 mmHg 82%
    01:00 +27°C° 0 mm 4 mps 755 mmHg 82%
    02:00 +27°C° 0 mm 3 mps 755 mmHg 82%
    03:00 +26°C° 0 mm 3 mps 755 mmHg 82%
    04:00 +26°C° 0 mm 3 mps 755 mmHg 82%
    05:00 +26°C° 0 mm 2 mps 755 mmHg 81%
    06:00 +26°C° 0 mm 2 mps 755 mmHg 80%
    07:00 +28°C° 0 mm 2 mps 755 mmHg 73%
    08:00 +29°C° 0 mm 1 mps 756 mmHg 65%
    09:00 +31°C° 0 mm 2 mps 756 mmHg 56%
    10:00 +31°C° 0 mm 3 mps 756 mmHg 56%
    11:00 +31°C° 0 mm 3 mps 755 mmHg 55%
    12:00 +33°C° 0 mm 4 mps 754 mmHg 55%
    13:00 +32°C° 0 mm 5 mps 754 mmHg 56%
    14:00 +32°C° 0 mm 5 mps 753 mmHg 57%
    15:00 +32°C° 0 mm 6 mps 752 mmHg 59%
    16:00 +30°C° 0 mm 6 mps 752 mmHg 63%
    17:00 +30°C° 0 mm 6 mps 752 mmHg 67%
    18:00 +29°C° 0 mm 6 mps 752 mmHg 71%
    19:00 +28°C° 0 mm 6 mps 753 mmHg 73%
    20:00 +28°C° 0 mm 6 mps 753 mmHg 75%
    21:00 +28°C° 0 mm 6 mps 754 mmHg 78%
    22:00 +27°C° 0 mm 5 mps 754 mmHg 80%
    23:00 +27°C° 0 mm 5 mps 754 mmHg 82%

    Tomorrow, 21 January, Tuesday

    Time Temperature Precipitation Wind Pressure Humidity
    00:00 +26°C° 0 mm 4 mps 754 mmHg 84%
    01:00 +26°C° 0 mm 4 mps 754 mmHg 85%
    02:00 +26°C° 0 mm 3 mps 753 mmHg 86%
    03:00 +25°C° 0 mm 3 mps 753 mmHg 87%
    04:00 +25°C° 0 mm 3 mps 753 mmHg 86%
    05:00 +25°C° 0 mm 3 mps 754 mmHg 86%
    06:00 +25°C° 0 mm 2 mps 754 mmHg 86%
    07:00 +27°C° 0 mm 3 mps 754 mmHg 79%
    08:00 +28°C° 0 mm 3 mps 755 mmHg 72%
    09:00 +30°C° 0 mm 3 mps 755 mmHg 65%
    10:00 +31°C° 0 mm 3 mps 754 mmHg 61%
    11:00 +32°C° 0 mm 4 mps 754 mmHg 58%
    12:00 +33°C° 0 mm 4 mps 753 mmHg 55%
    13:00 +33°C° 0 mm 5 mps 753 mmHg 58%
    14:00 +32°C° 0 mm 6 mps 752 mmHg 61%
    15:00 +32°C° 0 mm 6 mps 751 mmHg 64%
    16:00 +30°C° 0 mm 6 mps 751 mmHg 68%
    17:00 +30°C° 0 mm 6 mps 751 mmHg 72%
    18:00 +29°C° 0 mm 6 mps 751 mmHg 75%
    19:00 +29°C° 0 mm 6 mps 752 mmHg 77%
    20:00 +28°C° 0 mm 6 mps 752 mmHg 78%
    21:00 +28°C° 0 mm 6 mps 753 mmHg 79%
    22:00 +28°C° 0 mm 5 mps 753 mmHg 80%
    23:00 +28°C° 0 mm 5 mps 753 mmHg 81%

    Day after tomorrow, 22 January, Wednesday

    Time Temperature Precipitation Wind Pressure Humidity
    00:00 +27°C° 0 mm 5 mps 753 mmHg 81%
    01:00 +27°C° 0.3 mm 5 mps 753 mmHg 82%
    02:00 +27°C° 0.3 mm 4 mps 753 mmHg 84%
    03:00 +27°C° 0.3 mm 4 mps 753 mmHg 85%
    04:00 +27°C° 1.1 mm 5 mps 753 mmHg 85%
    05:00 +27°C° 1.1 mm 5 mps 753 mmHg 85%
    06:00 +27°C° 1.1 mm 5 mps 753 mmHg 85%
    07:00 +27°C° 0.5 mm 5 mps 754 mmHg 83%
    08:00 +28°C° 0.5 mm 6 mps 754 mmHg 81%
    09:00 +28°C° 0.5 mm 6 mps 754 mmHg 79%
    10:00 +29°C° 0 mm 6 mps 754 mmHg 76%
    11:00 +29°C° 0 mm 5 mps 754 mmHg 73%
    12:00 +30°C° 0 mm 5 mps 754 mmHg 69%
    13:00 +30°C° 0 mm 5 mps 753 mmHg 69%
    14:00 +30°C° 0 mm 4 mps 753 mmHg 69%
    15:00 +30°C° 0 mm 4 mps 752 mmHg 69%
    16:00 +29°C° 0 mm 4 mps 752 mmHg 70%
    17:00 +29°C° 0 mm 4 mps 752 mmHg 71%
    18:00 +29°C° 0 mm 5 mps 752 mmHg 72%
    19:00 +29°C° 0.2 mm 4 mps 753 mmHg 75%
    20:00 +28°C° 0.2 mm 3 mps 753 mmHg 78%
    21:00 +27°C° 0.2 mm 3 mps 754 mmHg 82%
    22:00 +27°C° 1.2 mm 3 mps 754 mmHg 83%
    23:00 +27°C° 1.2 mm 3 mps 754 mmHg 85%

    23 January, Thursday

    Time Temperature Precipitation Wind Pressure Humidity
    00:00 +27°C° 1.2 mm 4 mps 754 mmHg 87%
    01:00 +27°C° 0.9 mm 3 mps 753 mmHg 87%
    02:00 +27°C° 0.9 mm 3 mps 753 mmHg 86%
    03:00 +27°C° 0.9 mm 3 mps 753 mmHg 86%
    04:00 +27°C° 1 mm 4 mps 753 mmHg 86%
    05:00 +27°C° 1 mm 5 mps 754 mmHg 85%
    06:00 +27°C° 1 mm 6 mps 754 mmHg 85%
    07:00 +27°C° 0.1 mm 5 mps 754 mmHg 83%
    08:00 +27°C° 0.1 mm 3 mps 754 mmHg 81%
    09:00 +28°C° 0.1 mm 2 mps 755 mmHg 79%
    10:00 +28°C° 0 mm 2 mps 754 mmHg 75%
    11:00 +29°C° 0 mm 2 mps 754 mmHg 72%
    12:00 +30°C° 0 mm 2 mps 754 mmHg 69%
    13:00 +30°C° 0 mm 2 mps 754 mmHg 67%
    14:00 +30°C° 0 mm 2 mps 753 mmHg 66%
    15:00 +30°C° 0 mm 2 mps 752 mmHg 64%
    16:00 +30°C° 0.1 mm 2 mps 753 mmHg 68%
    17:00 +29°C° 0.1 mm 3 mps 753 mmHg 72%
    18:00 +29°C° 0.1 mm 3 mps 753 mmHg 77%
    19:00 +28°C° 1 mm 3 mps 754 mmHg 79%
    20:00 +28°C° 1 mm 3 mps 754 mmHg 82%
    21:00 +28°C° 1 mm 3 mps 754 mmHg 84%
    22:00 +27°C° 0.8 mm 3 mps 754 mmHg 85%
    23:00 +27°C° 0.8 mm 3 mps 754 mmHg 86%

    24 January, Friday

    Time Temperature Precipitation Wind Pressure Humidity
    00:00 +27°C° 0.8 mm 4 mps 754 mmHg 87%
    01:00 +27°C° 0.8 mm 3 mps 754 mmHg 88%
    02:00 +27°C° 0.8 mm 3 mps 753 mmHg 89%
    03:00 +26°C° 0.8 mm 3 mps 753 mmHg 90%
    04:00 +26°C° 0.7 mm 3 mps 753 mmHg 90%
    05:00 +26°C° 0.7 mm 3 mps 754 mmHg 90%
    06:00 +26°C° 0.7 mm 3 mps 754 mmHg 89%
    07:00 +28°C° 0.2 mm 3 mps 754 mmHg 82%
    08:00 +29°C° 0.2 mm 3 mps 754 mmHg 75%
    09:00 +31°C° 0.2 mm 3 mps 755 mmHg 69%
    10:00 +33°C° 0.1 mm 3 mps 755 mmHg 65%
    11:00 +34°C° 0.1 mm 3 mps 754 mmHg 62%
    12:00 +35°C° 0.1 mm 3 mps 754 mmHg 59%
    13:00 +34°C° 0.8 mm 5 mps 754 mmHg 65%
    14:00 +33°C° 0.8 mm 6 mps 753 mmHg 71%
    15:00 +32°C° 0.8 mm 7 mps 752 mmHg 77%
    16:00 +32°C° 0.6 mm 7 mps 753 mmHg 79%
    17:00 +30°C° 0.6 mm 7 mps 753 mmHg 81%
    18:00 +29°C° 0.6 mm 7 mps 753 mmHg 84%
    19:00 +29°C° 0.1 mm 7 mps 754 mmHg 84%
    20:00 +29°C° 0.1 mm 7 mps 754 mmHg 85%
    21:00 +28°C° 0.1 mm 6 mps 755 mmHg 85%
    22:00 +28°C° 0 mm 6 mps 755 mmHg 85%
    23:00 +28°C° 0 mm 6 mps 755 mmHg 85%

    25 January, Saturday

    Time Temperature Precipitation Wind Pressure Humidity
    00:00 +28°C° 0 mm 6 mps 755 mmHg 84%
    01:00 +28°C° 0 mm 5 mps 755 mmHg 86%
    02:00 +27°C° 0 mm 5 mps 754 mmHg 87%
    03:00 +27°C° 0 mm 4 mps 754 mmHg 89%
    04:00 +27°C° 0 mm 4 mps 754 mmHg 89%
    05:00 +27°C° 0 mm 4 mps 755 mmHg 89%
    06:00 +27°C° 0 mm 3 mps 755 mmHg 90%
    07:00 +28°C° 0 mm 3 mps 756 mmHg 83%
    08:00 +29°C° 0 mm 3 mps 756 mmHg 76%
    09:00 +30°C° 0 mm 2 mps 756 mmHg 69%
    10:00 +31°C° 0 mm 3 mps 756 mmHg 67%
    11:00 +33°C° 0 mm 3 mps 756 mmHg 65%
    12:00 +33°C° 0 mm 3 mps 755 mmHg 63%
    13:00 +33°C° 0 mm 4 mps 755 mmHg 65%
    14:00 +33°C° 0 mm 5 mps 754 mmHg 67%
    15:00 +33°C° 0 mm 6 mps 753 mmHg 69%
    16:00 +32°C° 0 mm 6 mps 754 mmHg 72%
    17:00 +30°C° 0 mm 6 mps 754 mmHg 75%
    18:00 +30°C° 0 mm 6 mps 754 mmHg 78%
    19:00 +29°C° 0 mm 6 mps 755 mmHg 80%
    20:00 +29°C° 0 mm 6 mps 755 mmHg 81%
    21:00 +29°C° 0 mm 5 mps 756 mmHg 82%
    22:00 +28°C° 0 mm 5 mps 756 mmHg 83%
    23:00 +28°C° 0 mm 4 mps 756 mmHg 84%
    Show more